Location: ???????
(54.9996°N, 37.9529°E)
Time: 03:00:08
(UTC+00:00)

RESURS DK-1 - Pass Details

Date: 14 April 2024
Orbit: 543 x 547 km, 69.9° (Epoch: 20 May)

Event Time Altitude Azimuth Distance (km) Brightness Sun altitude
Exits shadow 01:03:52 15° 214° (SW) 1,495 3.9 -11.4°
Maximum altitude 01:07:08 90° 292° (WNW) 552 2.3 -11.0°
Drops below altitude 10° 01:11:12 10° 36° (NE) 1,823 6.2 -10.6°
Sets 01:13:24 0° 36° (NE) 2,720 7.4 -10.3°
